TimePST,TemperatureF,Dew PointF,Humidity,Sea Level PressureIn,VisibilityMPH,Wind Direction,Wind SpeedMPH,Gust SpeedMPH,PrecipitationIn,Events,Conditions,WindDirDegrees,DateUTC
12:53 AM,39.9,28.9,65,30.12,10.0,WSW,13.8,21.9,N/A,,Clear,240,2013-02-17 08:53:00
1:53 AM,39.0,28.0,65,30.13,10.0,WSW,12.7,-,N/A,,Clear,240,2013-02-17 09:53:00
2:53 AM,37.9,28.9,70,30.13,10.0,WSW,11.5,-,N/A,,Clear,240,2013-02-17 10:53:00
3:53 AM,37.0,28.9,73,30.14,10.0,WSW,9.2,-,N/A,,Clear,240,2013-02-17 11:53:00
5:53 AM,34.0,27.0,75,30.16,10.0,SW,5.8,-,N/A,,Clear,230,2013-02-17 13:53:00
6:53 AM,33.1,26.1,75,30.17,10.0,WSW,4.6,-,N/A,,Clear,250,2013-02-17 14:53:00
7:53 AM,36.0,27.0,70,30.19,10.0,SSW,6.9,-,N/A,,Clear,210,2013-02-17 15:53:00
8:53 AM,41.0,27.0,57,30.19,10.0,WSW,13.8,19.6,N/A,,Clear,240,2013-02-17 16:53:00
9:53 AM,45.0,27.0,49,30.19,10.0,WSW,15.0,21.9,N/A,,Clear,250,2013-02-17 17:53:00
10:53 AM,46.9,27.0,46,30.19,10.0,WSW,15.0,-,N/A,,Clear,240,2013-02-17 18:53:00
11:53 AM,48.9,27.0,43,30.17,10.0,WSW,16.1,-,N/A,,Clear,240,2013-02-17 19:53:00
12:53 PM,50.0,26.1,39,30.16,10.0,SW,13.8,-,N/A,,Clear,230,2013-02-17 20:53:00
1:53 PM,51.1,26.1,38,30.14,10.0,West,13.8,23.0,N/A,,Clear,260,2013-02-17 21:53:00
2:53 PM,50.0,24.1,36,30.14,10.0,WSW,11.5,-,N/A,,Clear,240,2013-02-17 22:53:00
3:53 PM,50.0,24.1,36,30.13,10.0,WSW,11.5,-,N/A,,Clear,250,2013-02-17 23:53:00
4:53 PM,46.0,24.1,42,30.13,10.0,West,8.1,-,N/A,,Clear,270,2013-02-18 00:53:00
5:53 PM,42.1,24.1,49,30.13,10.0,WSW,6.9,-,N/A,,Clear,250,2013-02-18 01:53:00
6:53 PM,36.0,25.0,64,30.14,10.0,South,8.1,-,N/A,,Clear,190,2013-02-18 02:53:00
7:53 PM,34.0,24.1,67,30.14,10.0,South,6.9,-,N/A,,Clear,180,2013-02-18 03:53:00
9:53 PM,33.1,24.1,70,30.13,10.0,South,5.8,-,N/A,,Clear,190,2013-02-18 05:53:00
10:53 PM,28.0,23.0,81,30.13,10.0,NE,3.5,-,N/A,,Clear,50,2013-02-18 06:53:00
11:53 PM,26.1,21.9,84,30.12,10.0,SE,4.6,-,N/A,,Clear,130,2013-02-18 07:53:00